Regional Weather Roundup
Issued by NWS Charleston, WV

Home | Current Version | Previous Version | Graphics & Text | Print | Product List | Glossary On
Versions: 1 2 3 4 5 6 7 8 9 10 11 12 13 14 15 16 17 18 19 20 21 22 23 24 25 26 27 28 29 30 31 32 33 34 35 36 37 38 39 40 41 42 43 44 45 46 47 48 49 50
000
ASUS41 KRLX 020610
RWRRLX
West Virginia Regional Weather Roundup
National Weather Service Charleston WV
100 AM EST MON MAR 02 2015

Note: "fair" indicates few or no clouds below 12,000 feet with no
significant weather and/or obstructions to visibility.

WVZ003-020700-
Northern Panhandle of West Virginia

CITY           SKY/WX    TMP DP  RH WIND       PRES   REMARKS
WHEELING       CLOUDY    32  30  92 W12G20    30.18S
$$

WVZ009-020700-
Northwest West Virginia

CITY           SKY/WX    TMP DP  RH WIND       PRES   REMARKS
PARKERSBURG    CLOUDY    34  30  85 W8        30.27R
$$

WVZ006-020700-
Western West Virginia

CITY           SKY/WX    TMP DP  RH WIND       PRES   REMARKS
HUNTINGTON     MIX PCPN  36  36 100 NW7       30.27R FOG
$$

WVZ015-020700-
West Central West Virginia

CITY           SKY/WX    TMP DP  RH WIND       PRES   REMARKS
CHARLESTON     LGT RAIN  40  39  97 N7        30.22F VSB 1
$$

WVZ022-031-020700-
North Central West Virginia

CITY           SKY/WX    TMP DP  RH WIND       PRES   REMARKS
CLARKSBURG     LGT RAIN  38  37  97 W6        30.18S FOG
MORGANTOWN     LGT RAIN  38  33  82 SW6       30.17S
$$

WVZ025-035-042-045-020700-
Southern West Virginia

CITY           SKY/WX    TMP DP  RH WIND       PRES   REMARKS
BECKLEY        LGT RAIN  41  39  93 W9        30.18F VSB 1/4
LOGAN          LGT RAIN  43  43 100 VRB7      30.18S VSB<1/4
BLUEFIELD      CLOUDY    45  42  89 W13       30.18F FOG
LEWISBURG      DRZL/FOG  38  37  96 S5        30.18S VSB 1/4
$$

WVZ047-020700-
Northern Mountains of West Virginia

CITY           SKY/WX    TMP DP  RH WIND       PRES   REMARKS
ELKINS         LGT RAIN  41  38  89 W13G18    30.14F
$$

WVZ052-020700-
Eastern Panhandle of West Virginia

CITY           SKY/WX    TMP DP  RH WIND       PRES   REMARKS
MARTINSBURG    CLOUDY    32  28  85 SE5       30.13F FOG
PETERSBURG     CLOUDY    40  38  93 E5        30.09F
$$


USA.gov is the U.S. government's official web portal to all federal, state and local government web resources and services.